Flag for U.S.A. Weather past 2 weeks in Cheyenne, Wyoming, U.S.A.

Now
49 °F

Sunny.


Feels Like: 45 °F
Forecast: 41 / 67 °F
Wind: 9 mph from Southwest

Location: Cheyenne Airport

Current Time: May 30, 2015 at 8:54:00 AM

Latest Report: May 30, 2015 at 7:53 AM


Visibility: 10 mi

Pressure: 30.19 "Hg

Humidity: 84%

Dew point: 44 °F

Location of CheyenneLocation

Historic Weather in Cheyenne — Graph

°F

Cheyenne temperature yesterday

Maximum temperature yesterday: 57 °F (at 11:53 AM)
Minimum temperature yesterday: 42 °F (at 11:58 PM)
Average temperature yesterday: 50 °F

Past Weeks' High & Low Weather Summary

 TemperatureHumidityPressure
High69 °F (May 28, 4:53 PM)100% (May 21, 4:53 AM)30.33 "Hg (May 21, 4:53 AM)
Low30 °F (May 20, 12:53 AM)29% (May 16, 11:53 AM)29.53 "Hg (May 16, 12:53 PM)
Average47 °F76%29.96 "Hg
* Reported May 15 7:01 AM — May 30 6:53 AM, Cheyenne, Weather by CustomWeather, © 2015

Note: Actual official high and low records may vary slightly from our data, if they occured in-between our weather recording intervals... More about our weather records

Advertising

Cheyenne weather history for previous 24 hours

 ConditionsComfort  
Time TempWeatherWind HumidityBarometerVisibility
6:53 AM
Sat, May 30
46 °FScattered clouds.10 mph89%30.20 "Hg10 mi
5:53 AM44 °FFog.12 mph93%30.20 "Hg5 mi
4:53 AM45 °FLow clouds.13 mph93%30.19 "Hg8 mi
3:53 AM45 °FLow clouds.12 mph93%30.18 "Hg9 mi
2:53 AM43 °FFog.9 mph97%30.20 "Hg3 mi
1:53 AM40 °FClear.8 mph93%30.21 "Hg10 mi
12:53 AM42 °FClear.7 mph92%30.22 "Hg10 mi
11:58 PM
Fri, May 29
42 °FFog.8 mph96%30.33 "Hg3 mi
10:53 PM44 °FPassing clouds.No wind93%30.21 "Hg10 mi
9:53 PM46 °FPassing clouds.3 mph89%30.22 "Hg10 mi
8:53 PM47 °FLow clouds.6 mph90%30.21 "Hg10 mi
8:03 PM47 °FLow clouds.7 mph90%30.32 "Hg3 mi
7:53 PM47 °FFog.8 mph90%30.21 "Hg3 mi
6:53 PM47 °FLight rain. Fog.12 mph93%30.22 "Hg2 mi
5:53 PM49 °FMostly cloudy.12 mph84%30.19 "Hg10 mi
4:53 PM53 °FMostly cloudy.20 mph66%30.15 "Hg10 mi
3:53 PM54 °FBroken clouds.17 mph64%30.13 "Hg10 mi
2:53 PM55 °FBroken clouds.21 mph62%30.11 "Hg10 mi
1:53 PM55 °FBroken clouds.23 mph62%30.10 "Hg10 mi
12:53 PM54 °FLight rain. Partly sunny.22 mph64%30.10 "Hg10 mi
11:53 AM57 °FPartly sunny.20 mph53%30.08 "Hg10 mi
10:53 AM56 °FBroken clouds.17 mph53%30.06 "Hg10 mi
9:53 AM53 °FScattered clouds.10 mph64%30.07 "Hg10 mi
8:53 AM52 °FMore clouds than sun.12 mph66%30.07 "Hg10 mi
Weather by CustomWeather, © 2015

See weather overviewHow to use our weather pages